This demonstration page uses our WeatherBlox Daily Observations layout. Learn more.

Left ArrowRight Arrow

Hourly Observations for June 5, 2017

Temp ( °F °C ) Dew Point ( °F °C ) Humidity (%) Winds ( mph kmh ) Pressure ( in mb ) Visibility ( mi km ) Precip ( " mm )
12:59 am 00:59 Cloudy 72 22.2 68 20 87 87 SSW 5 7 29.90 1013 9 14 0.00 0.00
1:59 am 01:59 Cloudy 73 22.8 67 19.4 81 81 SSW 8 13 29.89 1012 10 16 0.00 0.00
2:59 am 02:59 Mostly Cloudy 72 22.2 67 19.4 84 84 SSW 10 17 29.87 1012 10 16 0.00 0.00
3:59 am 03:59 Mostly Cloudy 73 22.8 69 20.6 87 87 SSW 9 15 29.85 1011 10 16 0.00 0.00
4:59 am 04:59 Mostly Cloudy 73 22.8 69 20.6 87 87 SSW 7 11 29.85 1011 10 16 0.00 0.00
5:59 am 05:59 Mostly Cloudy 74 23.3 70 21.1 88 88 SSW 10 17 29.85 1011 9 14 0.00 0.00
6:59 am 06:59 Cloudy 75 23.9 71 21.7 88 88 SW 10 17 29.85 1011 9 14 0.00 0.00
7:59 am 07:59 Cloudy 75 23.9 71 21.7 88 88 SW 8 13 29.85 1011 9 14 0.00 0.00
8:59 am 08:59 Cloudy 76 24.4 71 21.7 85 85 SW 10 17 29.86 1011 8 13 0.00 0.00
9:59 am 09:59 Cloudy 78 25.6 71 21.7 79 79 SW 10 17 29.84 1011 8 13 0.00 0.00
10:59 am 10:59 Cloudy 79 26.1 72 22.2 79 79 SW 12 19 29.83 1010 9 14 0.00 0.00
11:59 am 11:59 Cloudy 79 26.1 72 22.2 79 79 SW 10 17 29.81 1009 7 11 0.00 0.00
12:45 pm 12:45 Cloudy 81 27.2 72 22.2 74 74 SSW 6 9 29.77 1008 9 14 0.00 0.00
12:59 pm 12:59 Cloudy 83 28.3 72 22.2 70 70 SSW 8 13 29.77 1008 10 16 0.00 0.00
1:59 pm 13:59 Cloudy 82 27.8 70 21.1 67 67 SSW 12 19 29.74 1007 10 16 0.00 0.00
2:59 pm 14:59 Cloudy with Light Rain 78 25.6 70 21.1 76 76 SSW 12 19 29.70 1006 8 13 0.00 0.03
3:33 pm 15:33 Cloudy with Light Rain 76 24.4 72 22.2 88 88 S 7 11 29.68 1005 3 4 0.05 1.27
3:42 pm 15:42 Cloudy with Light Rain 76 24.4 72 22.2 88 88 S 10 17 29.68 1005 4 6 0.06 1.52
3:50 pm 15:50 Cloudy with Rain 76 24.4 72 22.2 88 88 SSW 16 26 29.71 1006 2 3 0.10 2.54
3:52 pm 15:52 Cloudy with Rain 75 23.9 72 22.2 90 90 SSW 14 22 29.71 1006 2 2 0.10 2.54
3:59 pm 15:59 Cloudy with Light Rain 75 23.9 72 22.2 90 90 SSW 16 26 29.70 1006 3 4 0.12 3.05
4:21 pm 16:21 Cloudy with Light Rain 74 23.3 70 21.1 88 88 W 13 20 29.71 1006 3 4 0.06 1.52
4:28 pm 16:28 Cloudy with Light Rain 74 23.3 70 21.1 88 88 WSW 10 17 29.71 1006 5 8 0.07 1.78
4:59 pm 16:59 Cloudy with Light Rain 74 23.3 71 21.7 91 91 WNW 9 15 29.70 1006 3 5 0.12 3.05
5:29 pm 17:29 Cloudy with Light Rain 73 22.8 70 21.1 90 90 W 3 6 29.68 1005 2 2 0.07 1.78
5:36 pm 17:36 Cloudy with Light Rain 73 22.8 70 21.1 90 90 Calm 29.68 1005 1 1 0.11 2.79
5:41 pm 17:41 Cloudy with Light Rain 73 22.8 70 21.1 90 90 NW 5 7 29.68 1005 1 2 0.13 3.30
5:51 pm 17:51 Cloudy with Heavy Rain 73 22.8 70 21.1 90 90 NW 9 15 29.68 1005 1 1 0.35 8.89
5:59 pm 17:59 Cloudy with Heavy Rain 72 22.2 70 21.1 94 94 NW 7 11 29.68 1005 0 0 0.52 13.21
6:07 pm 18:07 Cloudy with Rain 72 22.2 70 21.1 94 94 NNW 7 11 29.68 1005 1 1 0.06 1.52
6:11 pm 18:11 Cloudy with Light Rain 72 22.2 70 21.1 94 94 NNW 8 13 29.68 1005 1 2 0.07 1.78
6:15 pm 18:15 Cloudy with Light Rain 72 22.2 70 21.1 94 94 NNW 6 9 29.68 1005 2 3 0.08 2.03
6:23 pm 18:23 Cloudy with Heavy Rain 73 22.8 70 21.1 90 90 NNW 8 13 29.68 1005 1 1 0.16 4.06
6:48 pm 18:48 Cloudy with Light Rain 73 22.8 70 21.1 90 90 N 5 7 29.68 1005 2 2 0.59 14.99
6:59 pm 18:59 Cloudy with Light Rain 73 22.8 71 21.7 94 94 N 3 6 29.67 1005 5 8 0.60 15.24
7:59 pm 19:59 Cloudy 72 22.2 69 20.6 91 91 N 6 9 29.67 1005 7 11 0.00 0.03
8:59 pm 20:59 Cloudy 72 22.2 69 20.6 91 91 N 6 9 29.67 1005 10 16 0.00 0.00
9:59 pm 21:59 Cloudy 72 22.2 69 20.6 91 91 NNE 7 11 29.69 1006 10 16 0.00 0.00
10:59 pm 22:59 Cloudy 72 22.2 69 20.6 91 91 NNE 3 6 29.71 1006 10 16 0.00 0.00
11:59 pm 23:59 Cloudy 71 21.7 69 20.6 94 94 VRB 3 6 29.70 1006 8 13 0.01 0.25

Powered by AerisWeather